Simultaneous Nadir Overpasses (SNOs) Predictions

Prediction of SNOs between GOES-17 and METOP-C Satellite Orbit:

Table of predicted SNOs for the next 14.0 days since TLE Epoch: 8/26/2022
Index Date Time (GOES-17) GOES-17 Lat,Lon METOP-C Lat,Lon Distance(km) Time Diff (sec)
1 08/27/2022 18:40:02 -0.04,-137.32 0.07,-137.73 47.09 80
2 08/30/2022 06:41:02 0.05,-137.32 0.06,-137.34 2.28 80
3 09/01/2022 18:39:13 -0.05,-137.31 -0.16,-136.90 47.12 80
4 09/03/2022 06:55:32 0.05,-137.30 -0.87,-141.50 478.31 80
5 09/04/2022 06:37:31 0.04,-137.28 0.22,-136.50 89.71 80
6 09/05/2022 18:53:42 -0.04,-137.26 0.81,-141.05 432.22 80
7 09/06/2022 18:35:41 -0.04,-137.25 -0.29,-136.05 135.36 80
8 09/08/2022 06:52:02 0.05,-137.22 -0.69,-140.66 391.49 80
9 09/09/2022 06:34:01 0.04,-137.20 0.40,-135.66 175.92 80
